Cloud_Cover
100 100 100 42 99 100 100 100 8 24 99 54 99 84 94 51 5 5 29 68 92 98 98 100 100 100 95 71 82 99 100 100 96 85 90 74 61 97 88 97 52 79 100
100 100 100 85 90 60 57 80 7 76 100 50 99 100 100 99 22 5 74 100 100 100 97 100 91 100 93 100 100 100 100 100 100 71 92 98 100 99 63 94 5 42 99
100 80 100 77 51 100 71 15 8 93 71 38 95 99 48 73 94 62 100 100 100 100 77 92 100 100 99 100 100 100 100 100 100 7 52 52 55 100 90 100 67 5 96
96 90 99 78 98 92 86 84 21 40 55 52 88 100 85 98 98 40 99 90 100 100 100 100 100 100 100 100 99 100 100 100 96 5 5 39 95 100 100 100 100 53 62
90 100 41 40 76 47 87 63 10 44 6 30 99 84 100 22 5 100 100 83 60 99 100 75 95 100 100 100 100 100 100 100 100 83 7 5 8 100 100 100 100 44 73
98 87 82 59 5 29 55 49 32 17 12 97 100 90 44 90 88 99 98 61 72 12 100 99 100 100 100 100 100 100 100 100 100 54 30 5 17 77 98 88 100 96 100
97 95 100 100 90 100 100 84 71 45 98 95 100 100 87 85 85 84 98 96 72 16 99 97 22 50 80 100 100 88 100 100 100 100 100 100 100 96 98 92 97 100 100
100 100 99 98 100 100 97 68 100 88 73 100 78 36 31 85 98 18 17 25 100 93 66 96 64 87 66 100 100 100 99 42 88 91 87 100 100 100 99 92 87 100 100
100 100 100 100 100 94 50 5 98 10 12 38 40 5 43 7 5 5 5 52 34 39 100 100 100 100 99 92 80 34 5 5 25 100 86 100 100 95 100 100 99 100 100
100 100 96 100 7 6 6 8 96 68 13 6 5 13 15 5 5 5 5 5 3 12 13 100 84 98 100 100 100 100 100 100 32 8 27 100 95 25 97 97 93 100 100
47 73 15 12 6 92 44 54 8 6 10 3 6 0 2 11 42 49 26 4 2 1 3 5 95 34 12 41 11 5 47 76 56 46 34 5 28 62 15 20 100 90 100
94 93 100 94 30 100 99 96 38 55 14 26 0 1 2 0 2 26 40 20 88 7 67 23 82 96 11 59 5 5 5 7 12 9 3 0 1 3 38 100 35 98 68
100 100 84 99 83 75 89 98 75 100 100 35 5 6 89 98 66 68 47 56 66 89 100 78 31 45 47 20 10 0 0 5 5 4 0 5 1 3 2 41 100 56 96
70 18 5 5 5 31 99 100 100 100 100 100 100 100 99 99 100 100 99 100 100 100 100 100 100 100 99 99 91 5 0 5 8 4 2 4 4 3 0 0 60 99 30
87 5 5 14 8 5 22 97 100 100 100 100 100 100 100 100 100 100 100 100 100 88 21 94 98 100 68 42 38 21 5 5 18 88 16 23 22 11 3 0 0 59 100
5 11 19 51 5 54 99 100 100 54 99 90 100 100 100 100 100 100 100 100 100 80 35 100 100 100 98 87 74 40 5 5 4 6 1 31 37 36 14 3 4 5 56
44 29 32 94 56 23 22 97 6 17 100 100 93 100 100 95 74 49 41 100 100 100 100 100 100 100 100 100 82 41 19 5 5 5 0 0 0 0 0 0 5 15 5
78 65 100 100 100 76 66 8 7 100 100 100 78 99 100 100 100 100 100 100 100 100 100 100 100 100 100 100 100 100 86 99 90 63 5 5 1 0 0 65 32 35 28
100 100 100 100 100 96 81 93 36 29 92 100 100 100 99 100 89 100 100 100 100 100 100 100 100 100 100 100 100 100 100 79 100 100 100 9 1 0 0 0 3 88 99
100 100 100 100 95 97 40 39 68 91 100 100 100 100 100 100 99 93 100 100 100 100 100 100 100 100 100 100 100 99 100 100 100 86 70 100 25 4 6 10 2 3 93
100 100 100 93 72 100 100 100 50 100 100 100 100 100 100 82 100 100 100 100 100 100 100 100 100 100 100 100 100 100 100 100 100 100 82 91 93 98 6 46 68 69 5
100 100 100 100 100 100 100 100 100 100 100 100 100 100 100 100 99 51 54 95 11 97 77 100 100 100 100 100 100 100 100 100 100 100 100 100 100 93 80 26 15 5 100
84 100 100 96 98 100 100 100 100 100 100 100 95 89 97 94 97 100 100 100 100 100 100 100 100 100 100 100 100 100 100 100 100 100 100 100 100 100 100 100 100 100 67
90 100 100 100 100 100 43 46 53 62 100 100 100 100 100 100 97 96 100 100 100 100 100 100 100 100 100 100 100 100 100 100 100 100 100 100 100 100 100 88 100 100 100
100 100 100 100 100 100 21 1 42 100 100 98 100 100 100 100 100 100 100 100 100 100 100 100 100 100 100 100 100 100 100 100 100 100 100 100 100 100 100 100 100 100 100
96 49 56 96 100 99 99 93 100 68 89 32 96 100 81 82 100 100 100 100 93 100 100 100 100 100 100 100 100 100 100 100 100 100 100 100 100 100 100 100 100 100 100